Tracking 19908 objects as of 18-Oct-2019
HD Live streaming from Space Station
objects crossing your sky now

IRIDIUM 33 DEB

Track IRIDIUM 33 DEB now!
10-day predictions


NORAD ID: 34148
Int'l Code: 1997-051EB
Perigee: 517.6 km
Apogee: 527.1 km
Inclination: 86.4 °
Period: 94.9 minutes
Semi major axis: 6893 km
RCS: 0.051 m2 (small)
Launch date: September 14, 1997
Source: United States (US)
Launch site: TYURATAM MISSILE AND SPACE COMPLEX (TTMTR)

Note: This is SATELLITE DEBRIS
aabbcc
Your satellite tracking list
Your tracking list is empty




NASA's NSSDC Master Catalog

Two Line Element Set (TLE):
1 34148U 97051EB  19291.35852408  .00016126  00000-0  81556-3 0  9993
2 34148  86.3893 214.0249 0006887 317.9082  42.1630 15.16915990570587
Source of the keplerian elements: AFSPC